INMARSAT 4-F1

导读 | 星芒AI

INMARSAT 4-F1 是国际海事卫星组织(Inmarsat)运营的第四代宽带全球区域卫星(BGAN)系统的一部分,于2005年发射。该卫星位于东经64.5度的轨道位置,主要为欧洲、非洲、中东和亚洲地区提供移动通信服务。它支持语音、数据和互联网接入,广泛应用于海事、航空和陆地移动通信领域。INMARSAT 4-F1 提供高带宽和低延迟,增强了全球移动通信的可靠性和覆盖范围。

基本信息
目录编号:
28628
目录名称:
INMARSAT 4-F1
国际标识:
2005-009A
轨道中心:
EARTH
卫星名称:
INMARSAT 4-F1
卫星全名:
--
卫星状态:
在轨 (已飞行7582 天)
发射日期:
2005-03-11 UTC
国别 :
(IM)
星等 :
--
轨道信息
数据来源 国际轨道数据 AOE轨道数据
星历时间 2025-12-12T21:21:52+0800
20小时前
查看轨道信息
2025-12-12T20:00:00+0800
21小时前
查看轨道信息
半长轴 42164.504km 42164.504km
偏心率 0.0002891 0.0002785
轨道倾角 4.918° 4.919°
近地点辐角 223.528° 224.619°
升交点赤经 42.596° 42.594°
平近点角 193.955° 172.342°
近地点 35774.179km 35774.626km
远地点 35798.559km 35798.112km
周期 1436.085分钟 1436.085分钟
每日圈数 1.002726 1.002726
详细信息
使用方式:
暂无
2D轨道图
3D轨道图
轨道高度分析图
轨道倾角分析图
轨道综合分析图
查看轨道综合分析图